This is the latest recevied weather packets stored in our database for station/object IZ1UQG-N2. If no packets are shown the sender has not sent any weather packets the latest 10 day(s).
| Time | Temp. | Humidity | Pressure | Rain* | Wind** | Luminosity | Snow |
|---|---|---|---|---|---|---|---|
| 1777292996 | 23.89° C | 46% | 1014.2 hPa | 0 mm | - | 768 W/m² | - |
| 1777292980 | 23.89° C | 46% | 1014.2 hPa | 0 mm | - | 768 W/m² | - |
| 1777292935 | 23.89° C | 47% | 1014.1 hPa | 0 mm | - | 768 W/m² | - |
| 1777292875 | 24.44° C | 47% | 1014.3 hPa | 0 mm | - | 768 W/m² | - |
| 1777292815 | 23.89° C | 47% | 1014.3 hPa | 0 mm | - | 759 W/m² | - |
| 1777292801 | 23.89° C | 47% | 1014.3 hPa | 0 mm | - | 759 W/m² | - |
| 1777292755 | 23.89° C | 47% | 1014.3 hPa | 0 mm | - | 759 W/m² | - |
| 1777292695 | 23.89° C | 47% | 1014.3 hPa | 0 mm | - | 751 W/m² | - |
| 1777292635 | 23.89° C | 47% | 1014.2 hPa | 0 mm | - | 745 W/m² | - |
| 1777292620 | 23.89° C | 47% | 1014.2 hPa | 0 mm | - | 745 W/m² | - |
| 1777292575 | 23.89° C | 47% | 1014.2 hPa | 0 mm | - | 751 W/m² | - |
| 1777292515 | 23.89° C | 48% | 1014.3 hPa | 0 mm | - | 758 W/m² | - |
| 1777292455 | 23.33° C | 48% | 1014.2 hPa | 0 mm | - | 759 W/m² | - |
| 1777292441 | 23.33° C | 48% | 1014.2 hPa | 0 mm | - | 759 W/m² | - |
| 1777292396 | 23.33° C | 48% | 1014.3 hPa | 0 mm | - | 761 W/m² | - |
| 1777292335 | 23.33° C | 48% | 1014.3 hPa | 0 mm | - | 768 W/m² | - |
| 1777292275 | 23.33° C | 48% | 1014.3 hPa | 0 mm | - | 773 W/m² | - |
| 1777292261 | 23.33° C | 48% | 1014.3 hPa | 0 mm | - | 773 W/m² | - |
| 1777292216 | 23.89° C | 47% | 1014.3 hPa | 0 mm | - | 775 W/m² | - |
| 1777292156 | 23.89° C | 48% | 1014.3 hPa | 0 mm | - | 772 W/m² | - |
| 1777292095 | 23.89° C | 48% | 1014.3 hPa | 0 mm | - | 782 W/m² | - |
| 1777292081 | 23.89° C | 48% | 1014.3 hPa | 0 mm | - | 782 W/m² | - |
| 1777292036 | 23.89° C | 49% | 1014.3 hPa | 0 mm | - | 777 W/m² | - |
| 1777291976 | 23.33° C | 48% | 1014.4 hPa | 0 mm | - | 777 W/m² | - |
| 1777291916 | 23.89° C | 47% | 1014.4 hPa | 0 mm | - | 777 W/m² | - |
* Rain latest hour (hover to see other rain measurements)
** Current wind speed in m/s (hover to see current wind gust speed)